Weather History for YBCS - January, 2013

Change the Weather History Date:

Wednesday, January 16, 2013

  Actual Average Record
Temperature  
Mean Temperature 80 °F -  
Max Temperature 86 °F 88 °F 93 °F (2008)
Min Temperature 74 °F 74 °F 69 °F (2000)
Cooling Degree Days 15    
Growing Degree Days 30 (Base 50)    
Moisture  
Dew Point 71 °F    
Average Humidity 74    
Maximum Humidity 94    
Minimum Humidity 52    
Precipitation  
Precipitation 0.01 in 0.54 in - ()
Sea Level Pressure  
Sea Level Pressure 29.79 in    
Wind  
Wind Speed 7 mph ()    
Max Wind Speed 12 mph    
Max Gust Speed -    
Visibility 6.5 miles    
Events Rain    
Averages and records for this station are not official NWS values.
T = Trace of Precipitation, MM = Missing Value Source: Averaged Metar Reports

Daily Weather History Graph

Daily Weather History Graph

Search for Another Location

Airport or City:

Trip Planner

Search our weather history database for the weather conditions in past years. The results will help you decide how hot, cold, wet, or windy it might be!

Date:

Astronomy

Jan. 16, 2013 Rise Set
Actual Time 5:56 AM AEST 6:57 PM AEST
Civil Twilight 5:32 AM AEST 7:20 PM AEST
Nautical Twilight 5:04 AM AEST 7:48 PM AEST
Astronomical Twilight 4:36 AM AEST 8:16 PM AEST
Moon 9:56 AM AEST (1/16) 10:13 PM AEST (1/16)
Length of Visible Light 13h 47m
Length of Day
13h 00m
Waxing Crescent, 22% of the Moon is Illuminated
Jan 16
Waxing Crescent
Jan 19
First Quarter
Jan 27
Full
Feb 3
Last Quarter
Feb 10
New

Hourly Weather History & Observations

Time (AEST) Temp. Heat Index Dew Point Humidity Pressure Visibility Wind Dir Wind Speed Gust Speed Precip Events Conditions
12:00 AM 80.6 °F 84.6 °F 71.6 °F 74% 29.80 in 6.2 mi South 9.2 mph - N/A   Mostly Cloudy
12:30 AM 78.8 °F - 71.6 °F 78% 29.77 in 6.2 mi South 11.5 mph - N/A   Mostly Cloudy
1:00 AM 80 °F - 70 °F 65% 29.79 in - SSE 9.2 mph - -  
1:00 AM 80.6 °F 83.9 °F 69.8 °F 70% 29.77 in 6.2 mi SSE 9.2 mph - N/A   Mostly Cloudy
1:30 AM 78.8 °F - 69.8 °F 74% 29.77 in 6.2 mi SSE 10.4 mph - N/A   Mostly Cloudy
2:00 AM 80.6 °F 83.9 °F 69.8 °F 70% 29.77 in 6.2 mi SSE 11.5 mph - N/A   Mostly Cloudy
2:30 AM 78.8 °F - 69.8 °F 74% 29.77 in 6.2 mi SSE 9.2 mph - N/A   Mostly Cloudy
2:50 AM 77.0 °F - 71.6 °F 83% 29.77 in 4.3 mi SSE 11.5 mph - N/A   Drizzle
3:00 AM 76 °F - 73 °F 87% 29.78 in 5 mi Calm Calm - -   Overcast
3:00 AM 77.0 °F - 73.4 °F 89% 29.77 in 4.3 mi SSE 9.2 mph - N/A   Drizzle
3:14 AM 77.0 °F - 73.4 °F 89% 29.77 in 6.2 mi SSE 8.1 mph - N/A   Overcast
3:30 AM 77.0 °F - 73.4 °F 89% 29.77 in 5.0 mi SSE 9.2 mph - N/A Rain Light Rain Showers
4:00 AM 76 °F - 73 °F 87% 29.79 in - SSE 9.2 mph - -  
4:00 AM 77.0 °F - 73.4 °F 89% 29.77 in 6.2 mi SSE 9.2 mph - N/A   Mostly Cloudy
4:30 AM 77.0 °F - 73.4 °F 89% 29.77 in 6.2 mi SSE 9.2 mph - N/A   Mostly Cloudy
5:00 AM 77.0 °F - 73.4 °F 89% 29.80 in 6.2 mi SSE 11.5 mph - N/A   Mostly Cloudy
5:30 AM 75.2 °F - 71.6 °F 89% 29.80 in 6.2 mi SSE 11.5 mph - N/A   Mostly Cloudy
5:45 AM 75.2 °F - 73.4 °F 94% 29.83 in 5.0 mi South 5.8 mph - N/A Rain Light Rain Showers
6:00 AM 75 °F - 72 °F 89% 29.83 in 5 mi South 5.8 mph - - Rain Light Rain Showers
6:00 AM 75.2 °F - 73.4 °F 94% 29.83 in 5.0 mi South 5.8 mph - N/A Rain Light Rain Showers
6:31 AM 75.2 °F - 73.4 °F 94% 29.83 in 5.6 mi SW 8.1 mph - N/A Rain Light Rain Showers
7:00 AM 76 °F - 73 °F 89% 29.83 in - Calm Calm - -  
7:00 AM 75.2 °F - 73.4 °F 94% 29.83 in 6.2 mi Calm Calm - N/A   Mostly Cloudy
7:30 AM 75.2 °F - 73.4 °F 94% 29.83 in 6.2 mi Calm Calm - N/A   Mostly Cloudy
8:00 AM 77.0 °F - 71.6 °F 83% 29.83 in 6.2 mi Calm Calm - N/A   Mostly Cloudy
8:30 AM 77.0 °F - 73.4 °F 89% 29.83 in 6.2 mi Calm Calm - N/A   Mostly Cloudy
9:00 AM 80 °F - 74 °F 76% 29.83 in 16 mi WNW 3.5 mph - -   Partly Cloudy
9:00 AM 80.6 °F 85.4 °F 73.4 °F 79% 29.83 in 6.2 mi WNW 3.5 mph - N/A   Mostly Cloudy
9:30 AM 82.4 °F 88.2 °F 73.4 °F 74% 29.83 in 6.2 mi WNW 5.8 mph - N/A   Mostly Cloudy
10:00 AM 83 °F - 73 °F 64% 29.83 in - WNW 4.6 mph - -  
10:00 AM 82.4 °F 88.2 °F 73.4 °F 74% 29.83 in 6.2 mi WNW 4.6 mph - N/A   Mostly Cloudy
10:30 AM 84.2 °F 90.9 °F 73.4 °F 70% 29.80 in 6.2 mi North 5.8 mph - N/A   Mostly Cloudy
11:00 AM 84.2 °F 89.6 °F 71.6 °F 66% 29.80 in 6.2 mi NNE 8.1 mph - N/A   Mostly Cloudy
11:30 AM 84.2 °F 89.6 °F 71.6 °F 66% 29.80 in 6.2 mi NNE 8.1 mph - N/A   Scattered Clouds
12:00 PM 84 °F - 72 °F 58% 29.81 in 16 mi North 8.1 mph - -   Partly Cloudy
12:00 PM 84.2 °F 89.6 °F 71.6 °F 66% 29.80 in 6.2 mi North 8.1 mph - N/A   Mostly Cloudy
12:30 PM 82.4 °F 87.2 °F 71.6 °F 70% 29.80 in 6.2 mi NNE 6.9 mph - N/A   Mostly Cloudy
1:00 PM 84 °F - 72 °F 59% 29.81 in - North 8.1 mph - -  
1:00 PM 84.2 °F 89.6 °F 71.6 °F 66% 29.80 in 6.2 mi North 8.1 mph - N/A   Mostly Cloudy
1:30 PM 84.2 °F 89.6 °F 71.6 °F 66% 29.77 in 6.2 mi NNE 6.9 mph - N/A   Mostly Cloudy
2:00 PM 84.2 °F 89.6 °F 71.6 °F 66% 29.77 in 6.2 mi NE 8.1 mph - N/A   Mostly Cloudy
2:30 PM 86.0 °F 91.8 °F 71.6 °F 62% 29.77 in 6.2 mi NNE 6.9 mph - N/A   Mostly Cloudy
3:00 PM 85 °F - 72 °F 56% 29.76 in 16 mi NE 8.1 mph - -   Partly Cloudy
3:00 PM 86.0 °F 91.8 °F 71.6 °F 62% 29.74 in 6.2 mi NE 8.1 mph - N/A   Scattered Clouds
3:30 PM 86.0 °F 91.8 °F 71.6 °F 62% 29.74 in 6.2 mi NNE 6.9 mph - N/A   Mostly Cloudy
4:00 PM 84 °F - 69 °F 52% 29.76 in - NE 6.9 mph - -  
4:00 PM 84.2 °F 88.4 °F 69.8 °F 62% 29.74 in 6.2 mi NE 6.9 mph - N/A   Mostly Cloudy
4:30 PM 84.2 °F 88.4 °F 69.8 °F 62% 29.74 in 6.2 mi NNE 8.1 mph - N/A   Mostly Cloudy
5:00 PM 84.2 °F 88.4 °F 69.8 °F 62% 29.74 in 6.2 mi NE 8.1 mph - N/A   Mostly Cloudy
5:30 PM 84.2 °F 87.3 °F 68.0 °F 58% 29.77 in 6.2 mi ENE 8.1 mph - N/A   Mostly Cloudy
6:00 PM 82.4 °F 85.4 °F 68.0 °F 62% 29.77 in 6.2 mi ENE 6.9 mph - N/A   Mostly Cloudy
6:30 PM 82.4 °F 85.4 °F 68.0 °F 62% 29.77 in 6.2 mi East 8.1 mph - N/A   Mostly Cloudy
7:00 PM 82 °F - 68 °F 53% 29.79 in - East 8.1 mph - -  
7:00 PM 82.4 °F 85.4 °F 68.0 °F 62% 29.77 in 6.2 mi East 8.1 mph - N/A   Mostly Cloudy
7:30 PM 80.6 °F 83.9 °F 69.8 °F 70% 29.77 in 6.2 mi ESE 6.9 mph - N/A   Mostly Cloudy
8:00 PM 78.8 °F - 69.8 °F 74% 29.80 in 6.2 mi South 2.3 mph - N/A   Mostly Cloudy
8:30 PM 78.8 °F - 69.8 °F 74% 29.80 in 6.2 mi South 5.8 mph - N/A   Mostly Cloudy
9:00 PM 78 °F - 69 °F 67% 29.81 in - SSE 4.6 mph - -  
9:00 PM 78.8 °F - 69.8 °F 74% 29.80 in 6.2 mi SSE 4.6 mph - N/A   Scattered Clouds
9:30 PM 77.0 °F - 69.8 °F 78% 29.80 in 6.2 mi South 3.5 mph - N/A   Partly Cloudy
10:00 PM 77 °F - 70 °F 73% 29.83 in - East 3.5 mph - -  
10:00 PM 77.0 °F - 69.8 °F 78% 29.83 in 6.2 mi East 3.5 mph - N/A   Partly Cloudy
10:30 PM 78.8 °F - 69.8 °F 74% 29.83 in 6.2 mi SSE 5.8 mph - N/A   Partly Cloudy
11:00 PM 77.0 °F - 68.0 °F 74% 29.83 in 6.2 mi SSE 5.8 mph - N/A   Partly Cloudy
11:30 PM 78.8 °F - 68.0 °F 69% 29.80 in 6.2 mi South 4.6 mph - N/A   Partly Cloudy